SHT3A EGCC-EGLL

Flight info

Callsign SHT3A
Flight time 0h 26m
Altitude 17000
Route SANBA N859 HON
Aircraft A320/M-SDE3FGHIRWY/LB1

Departure

Time 2026-05-04 17:28
Airport Manchester Airport (EGCC)

Arrival

Time 2026-05-04 17:54
Airport London Heathrow Airport (EGLL)
Time Latitude Longitude Altitude Speed Heading
2026-05-04 17:00 53.36767 -2.28775 247 ft 0 kts 315°
2026-05-04 17:08 53.36740 -2.28727 247 ft 4 kts 308°
2026-05-04 17:08 53.36725 -2.28690 247 ft 4 kts 297°
2026-05-04 17:09 53.36718 -2.28665 247 ft 2 kts 279°
2026-05-04 17:10 53.36722 -2.28624 247 ft 2 kts 205°
2026-05-04 17:10 53.36767 -2.28590 247 ft 2 kts 205°
2026-05-04 17:11 53.36782 -2.28579 247 ft 2 kts 221°
2026-05-04 17:11 53.36788 -2.28570 247 ft 0 kts 223°
2026-05-04 17:13 53.36778 -2.28585 247 ft 3 kts 224°
2026-05-04 17:14 53.36733 -2.28658 247 ft 8 kts 224°
2026-05-04 17:14 53.36731 -2.28661 247 ft 0 kts 224°
2026-05-04 17:14 53.36727 -2.28668 247 ft 3 kts 224°
2026-05-04 17:15 53.36714 -2.28689 247 ft 0 kts 224°
2026-05-04 17:15 53.36710 -2.28694 247 ft 1 kts 225°
2026-05-04 17:16 53.36608 -2.28788 247 ft 15 kts 183°
2026-05-04 17:16 53.36423 -2.28496 247 ft 0 kts 134°
2026-05-04 17:17 53.36408 -2.28477 247 ft 7 kts 151°
2026-05-04 17:17 53.36174 -2.28210 247 ft 19 kts 135°
2026-05-04 17:18 53.36075 -2.28041 247 ft 20 kts 135°
2026-05-04 17:18 53.35903 -2.27843 247 ft 14 kts 185°
2026-05-04 17:19 53.35739 -2.27641 247 ft 16 kts 161°
2026-05-04 17:19 53.35583 -2.27472 255 ft 5 kts 141°
2026-05-04 17:20 53.35572 -2.27457 256 ft 0 kts 141°
2026-05-04 17:26 53.35568 -2.27452 256 ft 3 kts 141°
2026-05-04 17:26 53.35276 -2.27207 251 ft 26 kts 191°
2026-05-04 17:27 53.34993 -2.27351 239 ft 19 kts 231°
2026-05-04 17:27 53.34435 -2.28507 220 ft 126 kts 231°
2026-05-04 17:28 53.33079 -2.31355 1035 ft 165 kts 234°
2026-05-04 17:29 53.32151 -2.37142 2439 ft 217 kts 301°
2026-05-04 17:29 53.33914 -2.44685 4610 ft 262 kts 252°
2026-05-04 17:30 53.29246 -2.47876 6226 ft 282 kts 160°
2026-05-04 17:31 53.25752 -2.44727 8143 ft 288 kts 149°
2026-05-04 17:31 53.20543 -2.39183 10486 ft 314 kts 150°
2026-05-04 17:32 53.16440 -2.35458 11167 ft 351 kts 154°
2026-05-04 17:33 53.09785 -2.29791 13362 ft 363 kts 154°
2026-05-04 17:33 53.07534 -2.27849 14087 ft 367 kts 153°
2026-05-04 17:34 53.00663 -2.21875 16077 ft 376 kts 153°
2026-05-04 17:34 52.98338 -2.19851 16717 ft 379 kts 153°
2026-05-04 17:35 52.91130 -2.13606 17062 ft 414 kts 153°
2026-05-04 17:35 52.85895 -2.09097 17059 ft 428 kts 153°
2026-05-04 17:35 52.83245 -2.06814 17059 ft 429 kts 153°
2026-05-04 17:36 52.80597 -2.04533 17059 ft 429 kts 153°
2026-05-04 17:36 52.77950 -2.02255 17060 ft 429 kts 153°
2026-05-04 17:36 52.75301 -1.99980 17055 ft 429 kts 153°
2026-05-04 17:36 52.72649 -1.97708 17058 ft 428 kts 154°
2026-05-04 17:37 52.70003 -1.95445 17055 ft 428 kts 154°
2026-05-04 17:37 52.67362 -1.93195 17055 ft 428 kts 154°
2026-05-04 17:37 52.64719 -1.90946 17051 ft 427 kts 154°
2026-05-04 17:37 52.62071 -1.88696 17051 ft 428 kts 154°
2026-05-04 17:38 52.59425 -1.86449 17050 ft 428 kts 154°
2026-05-04 17:38 52.56787 -1.84210 17052 ft 428 kts 154°
2026-05-04 17:38 52.54144 -1.81966 17050 ft 427 kts 154°
2026-05-04 17:38 52.51535 -1.79751 17048 ft 427 kts 154°
2026-05-04 17:39 52.46182 -1.75220 17053 ft 427 kts 154°
2026-05-04 17:39 52.43566 -1.73011 17054 ft 427 kts 154°
2026-05-04 17:39 52.40902 -1.70768 17051 ft 426 kts 154°
2026-05-04 17:40 52.38255 -1.68549 17052 ft 426 kts 154°
2026-05-04 17:40 52.35683 -1.66152 17046 ft 427 kts 147°
2026-05-04 17:40 52.33355 -1.63125 17045 ft 428 kts 140°
2026-05-04 17:40 52.31109 -1.59936 17042 ft 428 kts 140°
2026-05-04 17:41 52.28857 -1.56749 17040 ft 428 kts 140°
2026-05-04 17:41 52.26609 -1.53577 17039 ft 428 kts 140°
2026-05-04 17:41 52.24358 -1.50413 17041 ft 427 kts 141°
2026-05-04 17:41 52.22098 -1.47248 17033 ft 428 kts 141°
2026-05-04 17:42 52.19842 -1.44092 17035 ft 428 kts 141°
2026-05-04 17:42 52.17584 -1.40937 17035 ft 428 kts 141°
2026-05-04 17:42 52.15320 -1.37777 17034 ft 428 kts 141°
2026-05-04 17:42 52.13055 -1.34619 17013 ft 427 kts 141°
2026-05-04 17:43 52.10802 -1.31484 16254 ft 422 kts 141°
2026-05-04 17:43 52.08609 -1.28432 15655 ft 422 kts 141°
2026-05-04 17:43 52.06379 -1.25329 15154 ft 422 kts 141°
2026-05-04 17:43 52.04153 -1.22233 14660 ft 420 kts 141°
2026-05-04 17:44 52.01931 -1.19155 14157 ft 420 kts 141°
2026-05-04 17:44 51.99705 -1.16085 13703 ft 419 kts 141°
2026-05-04 17:44 51.97333 -1.13400 13199 ft 414 kts 154°
2026-05-04 17:44 51.94759 -1.11347 12595 ft 410 kts 156°
2026-05-04 17:45 51.92210 -1.09361 11990 ft 405 kts 156°
2026-05-04 17:45 51.89679 -1.07412 11389 ft 400 kts 156°
2026-05-04 17:45 51.87177 -1.05493 10790 ft 396 kts 156°
2026-05-04 17:45 51.84702 -1.03592 10215 ft 392 kts 156°
2026-05-04 17:46 51.82253 -1.01704 9600 ft 388 kts 156°
2026-05-04 17:46 51.79827 -0.99828 8964 ft 382 kts 156°
2026-05-04 17:46 51.77505 -0.98033 8333 ft 357 kts 155°
2026-05-04 17:46 51.75337 -0.96356 7733 ft 336 kts 156°
2026-05-04 17:47 51.73223 -0.94726 7123 ft 329 kts 155°
2026-05-04 17:47 51.71190 -0.93161 6725 ft 320 kts 155°
2026-05-04 17:47 51.69196 -0.91632 6326 ft 315 kts 155°
2026-05-04 17:47 51.67258 -0.90150 5917 ft 311 kts 155°
2026-05-04 17:48 51.65293 -0.88645 5497 ft 307 kts 155°
2026-05-04 17:48 51.63394 -0.87190 5099 ft 303 kts 155°
2026-05-04 17:48 51.61500 -0.85746 4769 ft 302 kts 155°
2026-05-04 17:48 51.59603 -0.84297 4451 ft 301 kts 154°
2026-05-04 17:49 51.57716 -0.82854 4149 ft 300 kts 154°
2026-05-04 17:49 51.56445 -0.81882 3937 ft 300 kts 153°
2026-05-04 17:49 51.54562 -0.80440 3634 ft 299 kts 153°
2026-05-04 17:49 51.52709 -0.79026 3339 ft 298 kts 152°
2026-05-04 17:50 51.50858 -0.77615 3057 ft 286 kts 153°
2026-05-04 17:50 51.49173 -0.76212 3002 ft 257 kts 141°
2026-05-04 17:50 51.48070 -0.74213 3003 ft 226 kts 115°
2026-05-04 17:50 51.47642 -0.71947 2922 ft 207 kts 90°
2026-05-04 17:51 51.47639 -0.69641 2706 ft 204 kts 87°
2026-05-04 17:51 51.47655 -0.67380 2446 ft 202 kts 87°
2026-05-04 17:51 51.47669 -0.65146 2181 ft 202 kts 87°
2026-05-04 17:51 51.47680 -0.62953 1931 ft 187 kts 87°
2026-05-04 17:52 51.47689 -0.60955 1669 ft 172 kts 86°
2026-05-04 17:52 51.47699 -0.59068 1439 ft 165 kts 86°
2026-05-04 17:52 51.47709 -0.57242 1212 ft 163 kts 86°
2026-05-04 17:52 51.47716 -0.55540 990 ft 147 kts 86°
2026-05-04 17:53 51.47723 -0.53926 817 ft 138 kts 86°
2026-05-04 17:53 51.47730 -0.52489 631 ft 133 kts 84°
2026-05-04 17:53 51.47740 -0.50976 437 ft 133 kts 86°
2026-05-04 17:53 51.47744 -0.49518 254 ft 128 kts 86°
2026-05-04 17:54 51.47744 -0.48083 97 ft 126 kts 89°
2026-05-04 17:54 51.47758 -0.46928 88 ft 81 kts 90°
2026-05-04 17:54 51.47765 -0.46234 87 ft 53 kts 89°
2026-05-04 17:54 51.47761 -0.45696 84 ft 41 kts 90°
2026-05-04 17:55 51.47707 -0.45469 88 ft 18 kts 170°
2026-05-04 17:55 51.47651 -0.45466 86 ft 0 kts 180°
2026-05-04 17:56 51.47646 -0.45466 86 ft 3 kts 180°
2026-05-04 17:56 51.47584 -0.45466 86 ft 14 kts 179°
2026-05-04 17:56 51.47509 -0.45542 91 ft 15 kts 263°
2026-05-04 17:56 51.47511 -0.45729 91 ft 18 kts 276°
2026-05-04 17:57 51.47520 -0.45941 86 ft 17 kts 268°
2026-05-04 17:57 51.47518 -0.46142 86 ft 19 kts 269°
2026-05-04 17:57 51.47516 -0.46372 86 ft 22 kts 269°
2026-05-04 17:57 51.47514 -0.46636 86 ft 23 kts 270°
2026-05-04 17:58 51.47496 -0.46829 89 ft 18 kts 262°
2026-05-04 17:58 51.47495 -0.47041 86 ft 20 kts 270°
2026-05-04 17:58 51.47493 -0.47286 86 ft 24 kts 269°
2026-05-04 17:58 51.47491 -0.47558 86 ft 21 kts 270°
2026-05-04 17:59 51.47492 -0.47765 86 ft 20 kts 270°
2026-05-04 17:59 51.47490 -0.48000 86 ft 22 kts 269°
2026-05-04 17:59 51.47488 -0.48480 86 ft 20 kts 269°
2026-05-04 18:00 51.47487 -0.48708 87 ft 22 kts 270°
2026-05-04 18:00 51.47487 -0.48791 87 ft 8 kts 270°
2026-05-04 18:00 51.47462 -0.48835 88 ft 7 kts 178°
2026-05-04 18:00 51.47410 -0.48829 86 ft 5 kts 179°
2026-05-04 18:01 51.47402 -0.48830 86 ft 0 kts 184°